1486800000.63,3167,9.88,73776.8,-5.73,-9.27,-10.35,0,*59
1486800001.86,3168,9.88,73772.8,-5.73,-9.27,-10.23,0,*51
1486800003.08,3169,9.88,73776.3,-5.73,-9.23,-10.23,0,*54
1486800004.31,3170,9.88,73776.0,-5.73,-9.23,-10.19,0,*55
1486800005.54,3171,9.88,73774.0,-5.73,-9.27,-10.19,0,*50
1486800006.76,3172,9.88,73778.5,-5.73,-9.23,-10.23,0,*5E
1486800007.97,3173,9.88,73774.0,-5.71,-9.19,-10.15,0,*51
1486800009.18,3174,9.88,73772.8,-5.71,-9.19,-10.27,0,*57
1486800010.39,3175,9.88,73770.8,-5.71,-9.23,-10.27,0,*5F
1486800011.6,3176,9.88,73772.0,-5.71,-9.23,-10.19,0,*51
1486800012.81,3177,9.88,73770.8,-5.71,-9.23,-10.27,0,*5D
1486800014.02,3178,9.88,73772.0,-5.71,-9.23,-10.27,0,*52
1486800015.22,3179,9.88,73772.5,-5.71,-9.19,-10.27,0,*5A
1486800016.43,3180,9.88,73776.5,-5.71,-9.23,-10.27,0,*55
1486800017.64,3181,9.88,73774.5,-5.71,-9.23,-10.27,0,*54
1486800018.85,3182,9.88,73778.0,-5.71,-9.23,-10.27,0,*57
1486800020.06,3183,9.88,73772.8,-5.71,-9.19,-10.31,0,*58
1486800021.26,3184,9.88,73774.3,-5.71,-9.23,-10.31,0,*56
1486800022.47,3185,9.88,73772.0,-5.71,-9.23,-10.27,0,*50
1486800023.68,3186,9.88,73772.0,-5.71,-9.23,-10.31,0,*54
1486800024.88,3187,9.88,73774.8,-5.71,-9.23,-10.31,0,*55
1486800026.09,3188,9.88,73778.8,-5.71,-9.23,-10.27,0,*5D
1486800027.3,3189,9.88,73778.5,-5.71,-9.23,-10.27,0,*5C
1486800028.51,3190,9.88,73776.0,-5.71,-9.23,-10.31,0,*53
1486800029.72,3191,9.88,73778.8,-5.71,-9.23,-10.27,0,*55
1486800030.97,3192,9.88,73778.0,-5.69,-9.15,-10.23,0,*5E
1486800032.2,3193,9.88,73776.8,-5.69,-9.19,-10.27,0,*57
1486800033.41,3194,9.88,73780.3,-5.71,-9.31,-10.31,0,*54
1486800034.63,3195,9.88,73776.0,-5.69,-9.27,-10.23,0,*58
1486800035.84,3196,9.88,73774.8,-5.71,-9.31,-10.31,0,*56
1486800037.04,3197,9.88,73778.8,-5.71,-9.23,-10.31,0,*54
1486800038.25,3198,9.88,73776.3,-5.71,-9.31,-10.31,0,*58
1486800039.48,3199,9.88,73778.3,-5.69,-9.19,-10.27,0,*5D
1486800040.69,3200,9.88,73772.3,-5.71,-9.19,-10.27,0,*57
1486800041.91,3201,9.88,73772.0,-5.69,-9.19,-10.23,0,*5B
1486800043.16,3202,9.88,73780.0,-5.69,-9.15,-10.23,0,*54
1486800044.4,3203,9.88,73776.8,-5.69,-9.19,-10.27,0,*5D
1486800045.62,3204,9.88,73772.8,-5.69,-9.19,-10.23,0,*5E
1486800046.88,3205,9.88,73776.5,-5.69,-9.15,-10.27,0,*57
1486800048.11,3206,9.88,73772.3,-5.69,-9.19,-10.27,0,*58
1486800049.34,3207,9.88,73774.0,-5.69,-9.27,-10.27,0,*54
1486800050.57,3208,9.88,73774.5,-5.69,-9.19,-10.27,0,*56
1486800051.8,3209,9.88,73776.3,-5.69,-9.19,-10.27,0,*57
1486800053.03,3210,9.88,73776.3,-5.69,-9.27,-10.27,0,*52
1486800054.26,3211,9.88,73774.0,-5.69,-9.19,-10.27,0,*5E
1486800055.52,3212,9.88,73774.8,-5.69,-9.15,-10.27,0,*51
1486800056.77,3213,9.88,73776.5,-5.69,-9.15,-10.23,0,*54
1486800058.0,3214,9.88,73774.8,-5.69,-9.27,-10.27,0,*56
1486800059.23,3215,9.88,73776.8,-5.69,-9.31,-10.35,0,*53
1486800060.45,3216,9.88,73776.8,-5.69,-9.27,-10.23,0,*50
1486800061.68,3217,9.88,73772.5,-5.69,-9.27,-10.27,0,*55
1486800062.89,3218,9.88,73776.5,-5.67,-9.27,-10.27,0,*54
1486800064.09,3219,9.88,73778.8,-5.67,-9.19,-10.27,0,*58
1486800065.29,3220,9.88,73774.0,-5.67,-9.31,-10.27,0,*58
1486800066.5,3221,9.88,73776.3,-5.67,-9.27,-10.27,0,*5E
1486800067.7,3222,9.88,73778.3,-5.67,-9.27,-10.35,0,*5E
1486800068.9,3223,9.88,73776.3,-5.67,-9.27,-10.27,0,*5C
1486800070.1,3224,9.88,73776.8,-5.67,-9.31,-10.27,0,*5C
1486800071.33,3225,9.88,73776.0,-5.65,-9.27,-10.35,0,*5B
1486800072.56,3226,9.88,73776.0,-5.65,-9.19,-10.27,0,*56
1486800073.76,3227,9.88,73780.8,-5.67,-9.31,-10.27,0,*5F
1486800074.99,3228,9.88,73782.8,-5.65,-9.31,-10.23,0,*56
1486800076.19,3229,9.88,73780.5,-5.67,-9.27,-10.35,0,*55
1486800077.42,3230,9.88,73778.0,-5.65,-9.27,-10.35,0,*5F
1486800078.62,3231,9.88,73778.8,-5.67,-9.27,-10.23,0,*5B
1486800079.82,3232,9.88,73780.0,-5.67,-9.27,-10.27,0,*5C
1486800081.02,3233,9.88,73782.8,-5.67,-9.27,-10.27,0,*5D
1486800082.22,3234,9.88,73780.5,-5.67,-9.27,-10.27,0,*5A
1486800083.43,3235,9.88,73782.0,-5.67,-9.27,-10.27,0,*5B
1486800084.62,3236,9.88,73782.0,-5.67,-9.27,-10.23,0,*5C
1486800085.85,3237,9.88,73782.8,-5.65,-9.27,-10.27,0,*5B
1486800087.1,3238,9.88,73780.0,-5.65,-9.31,-10.41,0,*53
1486800088.36,3239,9.88,73782.0,-5.65,-9.31,-10.41,0,*52
1486800089.56,3240,9.88,73782.5,-5.67,-9.27,-10.35,0,*5A
1486800090.79,3241,9.88,73780.0,-5.65,-9.27,-10.35,0,*59
1486800092.02,3242,9.88,73780.8,-5.65,-9.31,-10.35,0,*5D
1486800093.25,3243,9.88,73780.5,-5.65,-9.31,-10.35,0,*5C
1486800094.45,3244,9.88,73782.0,-5.67,-9.27,-10.27,0,*5D
1486800095.68,3245,9.88,73786.5,-5.65,-9.31,-10.27,0,*59
1486800096.88,3246,9.88,73782.3,-5.67,-9.31,-10.35,0,*5B
1486800098.11,3247,9.88,73780.0,-5.65,-9.27,-10.35,0,*5F
1486800099.34,3248,9.88,73780.0,-5.65,-9.31,-10.35,0,*57
1486800100.59,3249,9.88,73776.3,-5.65,-9.31,-10.41,0,*55
1486800101.82,3250,9.88,73776.0,-5.65,-9.31,-10.35,0,*5E
1486800103.05,3251,9.88,73776.3,-5.65,-9.31,-10.35,0,*5F
1486800104.28,3252,9.88,73776.8,-5.65,-9.31,-10.35,0,*5C
1486800105.51,3253,9.88,73778.0,-5.65,-9.27,-10.35,0,*5A
1486800106.74,3254,9.88,73778.8,-5.65,-9.31,-10.35,0,*5A
1486800107.97,3255,9.88,73772.0,-5.65,-9.31,-10.35,0,*5B
1486800109.2,3256,9.88,73774.5,-5.65,-9.31,-10.35,0,*58
1486800110.45,3257,9.88,73772.3,-5.65,-9.31,-10.41,0,*5A
1486800111.73,3258,9.88,73774.5,-5.65,-9.41,-10.41,0,*52
1486800112.98,3259,9.88,73776.3,-5.65,-9.31,-10.41,0,*54
1486800114.23,3260,9.88,73772.8,-5.65,-9.41,-10.49,0,*51
1486800115.46,3261,9.88,73774.5,-5.63,-9.37,-10.45,0,*5B
1486800116.71,3262,9.88,73778.0,-5.65,-9.45,-10.49,0,*57
1486800117.93,3263,9.88,73776.5,-5.67,-9.45,-10.49,0,*54
1486800119.18,3264,9.88,73776.5,-5.65,-9.41,-10.49,0,*55
1486800120.43,3265,9.88,73778.5,-5.65,-9.41,-10.49,0,*54
1486800121.68,3266,9.88,73774.8,-5.65,-9.45,-10.49,0,*53
1486800122.93,3267,9.88,73772.3,-5.65,-9.45,-10.49,0,*52
1486800124.18,3268,9.88,73778.8,-5.65,-9.41,-10.49,0,*59
1486800125.43,3269,9.88,73776.8,-5.65,-9.45,-10.49,0,*5C
1486800126.68,3270,9.88,73776.5,-5.65,-9.41,-10.53,0,*5B
1486800127.93,3271,9.88,73778.8,-5.65,-9.41,-10.49,0,*51
1486800129.15,3272,9.88,73778.5,-5.65,-9.31,-10.49,0,*55
1486800130.43,3273,9.88,73776.3,-5.65,-9.41,-10.41,0,*5B
1486800131.71,3274,9.88,73778.3,-5.65,-9.41,-10.41,0,*5C
1486800132.96,3275,9.88,73776.8,-5.65,-9.45,-10.49,0,*51
1486800134.21,3276,9.88,73776.0,-5.65,-9.41,-10.53,0,*5D
1486800135.46,3277,9.88,73772.0,-5.65,-9.41,-10.49,0,*57
1486800136.71,3278,9.88,73776.3,-5.65,-9.41,-10.49,0,*58
1486800137.99,3279,9.88,73778.5,-5.65,-9.45,-10.41,0,*55
1486800139.24,3280,9.88,73776.5,-5.65,-9.41,-10.49,0,*5F
1486800140.49,3281,9.88,73782.5,-5.65,-9.41,-10.49,0,*5E
1486800141.74,3282,9.88,73776.3,-5.65,-9.41,-10.49,0,*5D
1486800142.99,3283,9.88,73776.8,-5.65,-9.45,-10.49,0,*58
1486800144.22,3284,9.88,73776.3,-5.63,-9.41,-10.49,0,*5D
1486800145.47,3285,9.88,73774.8,-5.65,-9.45,-10.53,0,*55
1486800146.71,3286,9.88,73776.8,-5.65,-9.45,-10.53,0,*56
1486800147.93,3287,9.88,73772.8,-5.67,-9.45,-10.49,0,*5E
1486800149.18,3288,9.88,73778.0,-5.65,-9.45,-10.49,0,*53
1486800150.43,3289,9.88,73778.0,-5.65,-9.41,-10.53,0,*5D
1486800151.65,3290,9.88,73778.0,-5.63,-9.49,-10.45,0,*5C
1486800152.9,3291,9.88,73772.0,-5.65,-9.53,-10.49,0,*5C
1486800154.14,3292,9.88,73778.0,-5.65,-9.53,-10.53,0,*54
1486800155.36,3293,9.88,73776.8,-5.67,-9.53,-10.53,0,*57
1486800156.6,3294,9.88,73778.8,-5.65,-9.53,-10.53,0,*52
1486800157.85,3295,9.88,73776.3,-5.65,-9.45,-10.49,0,*5F
1486800159.09,3296,9.88,73776.5,-5.65,-9.45,-10.53,0,*57
1486800160.32,3297,9.88,73776.5,-5.63,-9.37,-10.45,0,*52
1486800161.55,3298,9.88,73776.8,-5.63,-9.41,-10.49,0,*50
1486800162.78,3299,9.88,73780.0,-5.63,-9.41,-10.45,0,*5D
1486800164.01,3300,9.88,73778.0,-5.63,-9.41,-10.45,0,*5C
1486800165.24,3301,9.88,73776.5,-5.63,-9.37,-10.45,0,*5C
1486800166.47,3302,9.88,73776.3,-5.63,-9.41,-10.45,0,*5E
1486800167.7,3303,9.88,73778.0,-5.63,-9.37,-10.35,0,*59
1486800168.93,3304,9.88,73780.3,-5.63,-9.41,-10.45,0,*58
1486800170.16,3305,9.88,73776.8,-5.63,-9.37,-10.45,0,*58
1486800171.44,3306,9.88,73780.0,-5.65,-9.41,-10.41,0,*58
1486800172.67,3307,9.88,73776.0,-5.63,-9.37,-10.35,0,*5D
1486800173.9,3308,9.94,73782.8,-5.63,-9.37,-10.31,0,*56
1486800175.17,3309,9.88,73778.8,-5.61,-9.37,-10.35,0,*51
1486800176.4,3310,9.88,73774.8,-5.63,-9.37,-10.35,0,*5B
1486800177.63,3311,9.88,73776.5,-5.63,-9.41,-10.45,0,*5C
1486800178.83,3312,9.88,73782.5,-5.63,-9.27,-10.45,0,*5F
1486800180.03,3313,9.88,73780.8,-5.63,-9.27,-10.45,0,*5E
1486800181.27,3314,9.88,73780.3,-5.63,-9.37,-10.35,0,*5F
1486800182.5,3315,9.88,73778.5,-5.63,-9.37,-10.35,0,*5E
1486800183.74,3316,9.88,73780.8,-5.63,-9.37,-10.35,0,*5D
1486800184.94,3317,9.88,73778.8,-5.63,-9.27,-10.31,0,*59
1486800186.15,3318,9.88,73782.5,-5.63,-9.27,-10.35,0,*52
1486800187.36,3319,9.88,73780.5,-5.63,-9.27,-10.35,0,*53
1486800188.56,3320,9.88,73776.8,-5.63,-9.27,-10.45,0,*5E
1486800189.77,3321,9.88,73778.8,-5.63,-9.27,-10.35,0,*58
1486800191.02,3322,9.88,73780.0,-5.61,-9.37,-10.31,0,*5C
1486800192.28,3323,9.88,73776.5,-5.61,-9.37,-10.45,0,*5E
1486800193.54,3324,9.88,73776.8,-5.61,-9.37,-10.49,0,*55
1486800194.77,3325,9.88,73776.5,-5.63,-9.37,-10.35,0,*5D
1486800196.01,3326,9.88,73776.5,-5.63,-9.37,-10.35,0,*5E
1486800197.26,3327,9.88,73776.0,-5.61,-9.37,-10.45,0,*5A
1486800198.49,3328,9.88,73778.3,-5.63,-9.37,-10.45,0,*57
1486800199.75,3329,9.88,73776.3,-5.61,-9.37,-10.45,0,*54
1486800201.0,3330,9.88,73778.5,-5.61,-9.41,-10.49,0,*51
1486800202.26,3331,9.88,73780.0,-5.61,-9.37,-10.45,0,*5D
1486800203.51,3332,9.88,73778.3,-5.61,-9.41,-10.45,0,*5F
1486800204.77,3333,9.88,73778.8,-5.61,-9.41,-10.45,0,*5E
1486800206.02,3334,9.88,73776.0,-5.61,-9.41,-10.49,0,*55
1486800207.25,3335,9.88,73776.0,-5.63,-9.41,-10.49,0,*56
1486800208.5,3336,9.88,73774.8,-5.61,-9.53,-10.45,0,*58
1486800209.76,3337,9.88,73776.5,-5.61,-9.41,-10.45,0,*5A
1486800210.98,3338,9.88,73778.5,-5.63,-9.49,-10.49,0,*53
1486800212.23,3339,9.88,73778.8,-5.61,-9.41,-10.49,0,*58
1486800213.49,3340,9.88,73774.3,-5.61,-9.37,-10.49,0,*57
1486800214.74,3341,9.88,73772.5,-5.61,-9.49,-10.49,0,*5F
1486800215.99,3342,9.88,73778.3,-5.61,-9.49,-10.45,0,*50
1486800217.25,3343,9.88,73776.0,-5.61,-9.41,-10.49,0,*55
1486800218.5,3344,9.88,73778.0,-5.61,-9.37,-10.45,0,*5F
1486800219.76,3345,9.88,73778.0,-5.61,-9.41,-10.49,0,*53
1486800221.01,3346,9.88,73774.5,-5.61,-9.49,-10.49,0,*58
1486800222.26,3347,9.88,73772.5,-5.61,-9.49,-10.45,0,*55
1486800223.48,3348,9.88,73778.8,-5.63,-9.49,-10.49,0,*54
1486800224.74,3349,9.88,73774.5,-5.61,-9.41,-10.49,0,*5F
1486800225.99,3350,9.88,73776.8,-5.61,-9.41,-10.49,0,*57
1486800227.22,3351,9.88,73778.0,-5.63,-9.49,-10.49,0,*5C
1486800228.47,3352,9.88,73778.5,-5.61,-9.49,-10.49,0,*5D
1486800229.72,3353,9.88,73776.3,-5.61,-9.49,-10.49,0,*5C
1486800230.97,3354,9.88,73776.8,-5.61,-9.53,-10.49,0,*50
1486800232.19,3355,9.88,73774.0,-5.63,-9.49,-10.57,0,*57
1486800233.44,3356,9.88,73776.5,-5.61,-9.53,-10.57,0,*5D
1486800234.69,3357,9.88,73778.8,-5.61,-9.53,-10.57,0,*5C
1486800235.94,3358,9.88,73778.0,-5.61,-9.53,-10.57,0,*53
1486800237.16,3359,9.88,73778.8,-5.63,-9.53,-10.57,0,*50
1486800238.41,3360,9.88,73774.0,-5.61,-9.53,-10.57,0,*58
1486800239.66,3361,9.94,73782.3,-5.61,-9.49,-10.57,0,*52
1486800240.91,3362,9.88,73776.0,-5.61,-9.49,-10.57,0,*51
1486800242.13,3363,9.88,73778.5,-5.63,-9.53,-10.57,0,*59
1486800243.35,3364,9.88,73772.8,-5.63,-9.49,-10.57,0,*55
1486800244.57,3365,9.88,73776.8,-5.63,-9.53,-10.57,0,*5F
1486800245.85,3366,9.88,73776.3,-5.61,-9.61,-10.63,0,*58
1486800247.09,3367,9.88,73778.0,-5.61,-9.61,-10.57,0,*5E
1486800248.34,3368,9.88,73774.5,-5.61,-9.53,-10.57,0,*50
1486800249.62,3369,9.94,73782.3,-5.61,-9.53,-10.63,0,*56
1486800250.84,3370,9.88,73776.5,-5.63,-9.49,-10.57,0,*50
1486800252.09,3371,9.88,73778.8,-5.61,-9.53,-10.49,0,*57
1486800253.31,3372,9.94,73782.8,-5.63,-9.53,-10.49,0,*56
1486800254.53,3373,9.88,73778.3,-5.63,-9.53,-10.45,0,*5B
1486800255.75,3374,9.88,73776.0,-5.63,-9.49,-10.49,0,*5B
1486800256.98,3375,9.88,73778.3,-5.63,-9.49,-10.49,0,*5A
1486800258.23,3376,9.88,73780.3,-5.61,-9.53,-10.49,0,*50
1486800259.45,3377,9.94,73780.3,-5.63,-9.49,-10.49,0,*58
1486800260.7,3378,9.88,73780.3,-5.61,-9.49,-10.49,0,*55
1486800261.92,3379,9.88,73778.5,-5.63,-9.49,-10.45,0,*5A
1486800263.18,3380,9.88,73778.8,-5.61,-9.41,-10.49,0,*5A
1486800264.44,3381,9.88,73782.5,-5.61,-9.37,-10.49,0,*5A
1486800265.69,3382,9.88,73776.3,-5.61,-9.49,-10.45,0,*5C
1486800266.94,3383,9.88,73780.8,-5.61,-9.41,-10.45,0,*55
1486800268.17,3384,9.88,73780.3,-5.63,-9.37,-10.49,0,*5D
1486800269.43,3385,9.88,73782.8,-5.61,-9.37,-10.35,0,*55
1486800270.69,3386,9.88,73780.5,-5.61,-9.37,-10.45,0,*51
1486800271.95,3387,9.88,73778.8,-5.61,-9.41,-10.35,0,*56
1486800273.2,3388,9.88,73782.8,-5.61,-9.37,-10.45,0,*5F
1486800274.46,3389,9.94,73782.0,-5.61,-9.37,-10.35,0,*59
1486800275.72,3390,9.88,73782.5,-5.61,-9.37,-10.31,0,*55
1486800276.98,3391,9.88,73780.8,-5.61,-9.37,-10.45,0,*57
1486800278.21,3392,9.88,73780.0,-5.61,-9.27,-10.31,0,*56
1486800279.44,3393,9.88,73776.8,-5.63,-9.37,-10.45,0,*57
1486800280.7,3394,9.88,73780.3,-5.61,-9.41,-10.35,0,*54
1486800281.95,3395,9.88,73782.8,-5.61,-9.37,-10.45,0,*53
1486800283.21,3396,9.94,73780.0,-5.61,-9.41,-10.45,0,*51
1486800284.49,3397,9.88,73782.8,-5.57,-9.37,-10.41,0,*50
1486800285.75,3398,9.94,73782.0,-5.57,-9.31,-10.41,0,*59
1486800287.0,3399,9.88,73782.3,-5.57,-9.37,-10.31,0,*59
1486800288.2,3400,9.88,73782.3,-5.55,-9.19,-10.27,0,*57
1486800289.43,3401,9.88,73782.0,-5.57,-9.31,-10.27,0,*5E
1486800290.66,3402,9.88,73780.3,-5.57,-9.23,-10.31,0,*59
1486800291.87,3403,9.88,73782.8,-5.55,-9.19,-10.27,0,*54
1486800293.07,3404,9.94,73780.5,-5.55,-9.19,-10.27,0,*53
1486800294.27,3405,9.88,73778.8,-5.55,-9.19,-10.27,0,*52
1486800295.53,3406,9.88,73778.5,-5.57,-9.31,-10.41,0,*59
1486800296.78,3407,9.94,73782.8,-5.57,-9.37,-10.45,0,*5A
1486800298.06,3408,9.88,73776.8,-5.57,-9.37,-10.41,0,*51
1486800299.32,3409,9.94,73782.8,-5.57,-9.31,-10.41,0,*56
1486800300.54,3410,9.88,73778.5,-5.57,-9.31,-10.31,0,*59
1486800301.75,3411,9.88,73780.0,-5.55,-9.27,-10.35,0,*59
1486800302.95,3412,9.88,73780.0,-5.55,-9.27,-10.27,0,*59
1486800304.15,3413,9.88,73780.0,-5.55,-9.31,-10.27,0,*5F
1486800305.36,3414,9.88,73780.8,-5.55,-9.31,-10.27,0,*58
1486800306.61,3415,9.88,73778.3,-5.57,-9.31,-10.41,0,*5B
1486800307.82,3416,9.88,73780.0,-5.55,-9.31,-10.27,0,*5A
1486800309.04,3417,9.94,73782.3,-5.57,-9.23,-10.31,0,*5D
1486800310.24,3418,9.94,73782.0,-5.55,-9.27,-10.23,0,*57
1486800311.44,3419,9.88,73782.8,-5.55,-9.31,-10.35,0,*56
1486800312.65,3420,9.88,73782.0,-5.55,-9.31,-10.35,0,*5C
1486800313.85,3421,9.88,73780.3,-5.55,-9.19,-10.23,0,*50
1486800315.05,3422,9.88,73780.5,-5.55,-9.19,-10.27,0,*57
1486800316.25,3423,9.88,73778.5,-5.55,-9.27,-10.27,0,*5B
1486800317.49,3424,9.88,73778.5,-5.53,-9.27,-10.27,0,*5A
1486800318.69,3425,9.88,73778.8,-5.55,-9.31,-10.27,0,*5A
1486800319.89,3426,9.88,73780.8,-5.55,-9.31,-10.27,0,*59
1486800321.09,3427,9.88,73778.0,-5.55,-9.31,-10.27,0,*58
1486800322.33,3428,9.88,73776.0,-5.55,-9.15,-10.27,0,*51
1486800323.53,3429,9.88,73778.8,-5.55,-9.19,-10.23,0,*58
1486800324.73,3430,9.88,73780.8,-5.55,-9.19,-10.27,0,*54
1486800325.96,3431,9.88,73782.8,-5.53,-9.19,-10.23,0,*57
1486800327.19,3432,9.88,73780.0,-5.53,-9.19,-10.27,0,*50
1486800328.42,3433,9.94,73780.5,-5.53,-9.19,-10.23,0,*55
1486800329.65,3434,9.88,73778.3,-5.53,-9.19,-10.23,0,*52
1486800330.88,3435,9.94,73780.8,-5.51,-9.15,-10.19,0,*54
1486800332.12,3436,9.94,73782.3,-5.53,-9.19,-10.27,0,*54
1486800333.35,3437,9.88,73780.0,-5.53,-9.27,-10.27,0,*58
1486800334.58,3438,9.88,73778.5,-5.51,-9.15,-10.23,0,*50
1486800335.82,3439,9.88,73778.0,-5.53,-9.19,-10.35,0,*58
1486800337.05,3440,9.88,73776.3,-5.53,-9.19,-10.27,0,*55
1486800338.29,3441,9.88,73778.8,-5.51,-9.15,-10.19,0,*57
1486800339.52,3442,9.88,73776.8,-5.51,-9.11,-10.19,0,*50
1486800340.79,3443,9.88,73780.0,-5.53,-9.15,-10.27,0,*5A
1486800342.02,3444,9.88,73778.8,-5.53,-9.19,-10.27,0,*51
1486800343.25,3445,9.88,73780.5,-5.53,-9.19,-10.23,0,*54
1486800344.48,3446,9.88,73782.0,-5.51,-9.11,-10.19,0,*54
1486800345.72,3447,9.88,73780.5,-5.51,-9.15,-10.19,0,*51
1486800346.96,3448,9.88,73782.5,-5.53,-9.19,-10.27,0,*5D
1486800348.19,3449,9.88,73780.3,-5.51,-9.15,-10.23,0,*56
1486800349.39,3450,9.88,73776.8,-5.51,-9.23,-10.35,0,*5C
1486800350.63,3451,9.94,73780.3,-5.51,-9.15,-10.19,0,*56
1486800351.87,3452,9.88,73782.3,-5.51,-9.15,-10.19,0,*55
1486800353.07,3453,9.94,73782.0,-5.51,-9.23,-10.23,0,*58
1486800354.27,3454,9.88,73780.3,-5.51,-9.23,-10.31,0,*5C
1486800355.48,3455,9.88,73782.8,-5.51,-9.23,-10.31,0,*5D
1486800356.68,3456,9.88,73780.5,-5.51,-9.23,-10.31,0,*5E
1486800357.92,3457,9.88,73780.3,-5.51,-9.15,-10.19,0,*50
1486800359.15,3458,9.94,73786.8,-5.51,-9.11,-10.23,0,*52
1486800360.41,3459,9.94,73784.3,-5.49,-9.15,-10.19,0,*57
1486800361.64,3460,9.94,73784.0,-5.51,-9.15,-10.23,0,*5D
1486800362.87,3461,9.94,73786.8,-5.51,-9.15,-10.23,0,*5C
1486800364.11,3462,9.88,73780.5,-5.51,-9.11,-10.19,0,*52
1486800365.33,3463,9.88,73782.0,-5.51,-9.11,-10.23,0,*5A
1486800366.57,3464,9.88,73786.3,-5.51,-9.15,-10.23,0,*59
1486800367.82,3465,9.88,73782.0,-5.49,-9.15,-10.23,0,*51
1486800369.08,3466,9.88,73780.5,-5.45,-9.11,-10.19,0,*53
1486800370.35,3467,9.94,73784.5,-5.49,-9.15,-10.19,0,*5A
1486800371.61,3468,9.94,73790.0,-5.49,-9.11,-10.19,0,*51
1486800372.86,3469,9.94,73786.5,-5.49,-9.15,-10.23,0,*5D
1486800374.12,3470,9.94,73784.5,-5.49,-9.15,-10.19,0,*5C
1486800375.38,3471,9.94,73786.5,-5.49,-9.11,-10.23,0,*50
1486800376.61,3472,9.94,73788.0,-5.45,-9.05,-10.19,0,*53
1486800377.88,3473,9.94,73784.3,-5.49,-9.15,-10.19,0,*5F
1486800379.13,3474,9.88,73780.5,-5.49,-9.15,-10.23,0,*51
1486800380.39,3475,9.94,73786.0,-5.49,-9.15,-10.23,0,*50
1486800381.65,3476,9.94,73786.8,-5.45,-9.11,-10.19,0,*52
1486800382.91,3477,9.88,73784.3,-5.49,-9.15,-10.23,0,*52
1486800384.16,3478,9.94,73786.5,-5.49,-9.11,-10.19,0,*50
1486800385.43,3479,9.94,73786.3,-5.45,-9.11,-10.19,0,*5D
1486800386.66,3480,9.88,73784.0,-5.45,-9.05,-10.19,0,*5E
1486800387.9,3481,9.94,73784.8,-5.45,-9.05,-10.19,0,*5F
1486800389.14,3482,9.88,73780.5,-5.45,-9.05,-10.15,0,*50
1486800390.39,3483,9.94,73782.0,-5.45,-9.11,-10.23,0,*51
1486800391.63,3484,9.94,73782.3,-5.45,-9.05,-10.15,0,*56
1486800392.86,3485,9.94,73782.3,-5.45,-8.97,-10.19,0,*51
1486800394.12,3486,9.94,73782.5,-5.45,-9.11,-10.19,0,*5D
1486800395.39,3487,9.94,73782.8,-5.45,-9.11,-10.19,0,*5C
1486800396.65,3488,9.94,73782.8,-5.45,-9.11,-10.19,0,*53
1486800397.91,3489,9.94,73780.5,-5.45,-9.11,-10.19,0,*52
1486800399.18,3490,9.88,73778.5,-5.45,-9.11,-10.19,0,*5A
1486800400.44,3491,9.94,73780.5,-5.45,-9.11,-10.19,0,*5B
1486800401.7,3492,9.94,73782.5,-5.45,-9.11,-10.19,0,*58
1486800402.96,3493,9.94,73786.5,-5.45,-9.11,-10.27,0,*54
1486800404.2,3494,9.94,73780.5,-5.45,-9.05,-10.19,0,*5B
1486800405.46,3495,9.94,73784.5,-5.45,-9.11,-10.19,0,*5F
1486800406.67,3496,9.88,73782.3,-5.43,-9.05,-10.09,0,*5E
1486800407.93,3497,9.94,73788.0,-5.45,-9.11,-10.19,0,*5D
1486800409.16,3498,9.94,73784.8,-5.45,-9.19,-10.19,0,*5A
1486800410.43,3499,9.88,73784.8,-5.45,-9.11,-10.19,0,*53
1486800411.69,3500,9.88,73784.0,-5.45,-9.11,-10.15,0,*5E
1486800412.95,3501,9.88,73784.0,-5.45,-9.11,-10.15,0,*5F
1486800414.19,3502,9.94,73788.0,-5.45,-9.05,-10.19,0,*55
1486800415.45,3503,9.88,73786.5,-5.45,-9.11,-10.15,0,*5D
1486800416.69,3504,9.94,73788.5,-5.45,-9.05,-10.19,0,*53
1486800417.89,3505,9.94,73790.8,-5.43,-9.01,-10.09,0,*51
1486800419.1,3506,9.94,73788.8,-5.43,-9.01,-10.15,0,*5F
1486800420.33,3507,9.88,73784.5,-5.43,-9.11,-10.23,0,*5A
1486800421.54,3508,9.88,73784.5,-5.43,-9.05,-10.27,0,*54
1486800422.77,3509,9.94,73786.0,-5.43,-9.15,-10.23,0,*50
1486800424.04,3510,9.88,73784.0,-5.45,-9.11,-10.27,0,*5E
1486800425.24,3511,9.94,73786.8,-5.43,-9.05,-10.23,0,*58
1486800426.47,3512,9.94,73788.5,-5.45,-9.19,-10.27,0,*54
1486800427.67,3513,9.94,73786.8,-5.43,-9.05,-10.23,0,*5A
1486800428.88,3514,9.94,73788.5,-5.43,-9.05,-10.23,0,*5D
1486800430.11,3515,9.94,73788.8,-5.43,-9.15,-10.23,0,*5D
1486800431.37,3516,9.88,73786.3,-5.45,-9.11,-10.31,0,*5F
1486800432.61,3517,9.88,73786.0,-5.43,-9.15,-10.15,0,*5A
1486800433.84,3518,9.88,73786.8,-5.43,-9.15,-10.15,0,*55
1486800435.08,3519,9.94,73786.5,-5.43,-9.15,-10.27,0,*55
1486800436.28,3520,9.94,73784.8,-5.43,-9.19,-10.23,0,*57
1486800437.49,3521,9.94,73784.8,-5.43,-9.19,-10.27,0,*52
1486800438.69,3522,9.88,73784.3,-5.43,-9.19,-10.27,0,*51
1486800439.9,3523,9.88,73782.5,-5.43,-9.19,-10.27,0,*50
1486800441.11,3524,9.88,73782.3,-5.43,-9.19,-10.27,0,*57
1486800442.34,3525,9.88,73778.0,-5.45,-9.23,-10.31,0,*5E
1486800443.57,3526,9.94,73782.3,-5.45,-9.23,-10.31,0,*5D
1486800444.77,3527,9.94,73780.8,-5.43,-9.27,-10.27,0,*59
1486800445.98,3528,9.94,73782.3,-5.43,-9.27,-10.35,0,*55
1486800447.19,3529,9.94,73782.3,-5.43,-9.27,-10.35,0,*54
1486800448.42,3530,9.94,73780.8,-5.41,-9.27,-10.35,0,*5E
1486800449.65,3531,9.94,73784.5,-5.41,-9.31,-10.35,0,*58
1486800450.91,3532,9.88,73782.8,-5.41,-9.41,-10.35,0,*5C
1486800452.14,3533,9.94,73780.3,-5.43,-9.45,-10.49,0,*50
1486800453.39,3534,9.88,73778.5,-5.43,-9.45,-10.41,0,*5F
1486800454.64,3535,9.94,73780.0,-5.45,-9.45,-10.45,0,*5C
1486800455.9,3536,9.88,73776.5,-5.43,-9.41,-10.41,0,*59
1486800457.15,3537,9.88,73776.8,-5.45,-9.45,-10.45,0,*5E
1486800458.38,3538,9.94,73782.8,-5.43,-9.31,-10.41,0,*50
1486800459.61,3539,9.88,73780.3,-5.43,-9.31,-10.41,0,*51
1486800460.84,3540,9.94,73780.8,-5.43,-9.31,-10.41,0,*5F
1486800462.07,3541,9.88,73782.5,-5.43,-9.41,-10.49,0,*51
1486800463.33,3542,9.88,73782.8,-5.43,-9.41,-10.41,0,*5A
1486800464.58,3543,9.94,73776.8,-5.43,-9.41,-10.41,0,*5B
1486800465.84,3544,9.94,73780.0,-5.43,-9.41,-10.41,0,*5C
1486800467.07,3545,9.94,73776.5,-5.43,-9.45,-10.49,0,*51
1486800468.29,3546,9.88,73778.0,-5.43,-9.41,-10.49,0,*56
1486800469.52,3547,9.94,73778.5,-5.43,-9.45,-10.53,0,*58
1486800470.74,3548,9.94,73780.0,-5.43,-9.41,-10.53,0,*53
1486800471.97,3549,9.94,73780.8,-5.43,-9.45,-10.53,0,*56
1486800473.19,3550,9.94,73782.8,-5.43,-9.45,-10.57,0,*5A
1486800474.44,3551,9.88,73780.0,-5.45,-9.49,-10.57,0,*51
1486800475.67,3552,9.88,73780.3,-5.43,-9.45,-10.53,0,*5C
1486800476.92,3553,9.94,73784.0,-5.43,-9.45,-10.67,0,*5A
1486800478.15,3554,9.88,73782.3,-5.43,-9.45,-10.57,0,*5E
1486800479.4,3555,9.88,73780.3,-5.45,-9.49,-10.57,0,*55
1486800480.62,3556,9.88,73782.5,-5.43,-9.45,-10.53,0,*58
1486800481.87,3557,9.94,73784.0,-5.45,-9.49,-10.57,0,*57
1486800483.09,3558,9.88,73784.8,-5.43,-9.49,-10.57,0,*5E
1486800484.32,3559,9.88,73786.0,-5.43,-9.45,-10.53,0,*57
1486800485.54,3560,9.88,73782.5,-5.43,-9.45,-10.53,0,*5D
1486800486.79,3561,9.88,73784.3,-5.45,-9.49,-10.57,0,*52
1486800488.02,3562,9.88,73784.0,-5.43,-9.41,-10.49,0,*50
1486800489.27,3563,9.88,73784.0,-5.45,-9.49,-10.57,0,*50
1486800490.52,3564,9.94,73784.8,-5.45,-9.49,-10.57,0,*57
1486800491.74,3565,9.88,73780.3,-5.43,-9.45,-10.49,0,*53
1486800492.97,3566,9.94,73786.5,-5.43,-9.45,-10.53,0,*5B
1486800494.22,3567,9.88,73778.8,-5.45,-9.45,-10.57,0,*58
1486800495.47,3568,9.88,73778.3,-5.45,-9.49,-10.57,0,*5B
1486800496.72,3569,9.88,73778.8,-5.43,-9.45,-10.67,0,*53
1486800497.99,3570,9.88,73778.0,-5.45,-9.57,-10.71,0,*59
1486800499.26,3571,9.94,73780.5,-5.45,-9.57,-10.71,0,*58
1486800500.53,3572,9.94,73780.0,-5.45,-9.57,-10.75,0,*5F
1486800501.79,3573,9.88,73778.8,-5.45,-9.57,-10.71,0,*5A
1486800503.06,3574,9.94,73780.5,-5.45,-9.57,-10.71,0,*5D
1486800504.33,3575,9.94,73776.8,-5.45,-9.57,-10.75,0,*58
1486800505.6,3576,9.88,73776.8,-5.45,-9.61,-10.71,0,*5A
1486800506.87,3577,9.94,73782.3,-5.45,-9.61,-10.71,0,*5B
1486800508.14,3578,9.94,73778.3,-5.45,-9.57,-10.75,0,*55
1486800509.41,3579,9.94,73778.8,-5.45,-9.57,-10.75,0,*54
1486800510.66,3580,9.94,73776.0,-5.45,-9.67,-10.75,0,*51
1486800511.93,3581,9.88,73778.3,-5.45,-9.57,-10.75,0,*53
1486800513.2,3582,9.88,73776.8,-5.45,-9.57,-10.75,0,*50
1486800514.47,3583,9.88,73778.0,-5.45,-9.57,-10.75,0,*51
1486800515.69,3584,9.94,73780.8,-5.49,-9.75,-10.89,0,*59
1486800516.92,3585,9.88,73776.0,-5.45,-9.75,-10.85,0,*58
1486800518.14,3586,9.94,73778.5,-5.49,-9.75,-10.89,0,*5B
1486800519.36,3587,9.88,73776.5,-5.49,-9.75,-10.93,0,*51